Tracking 35237 objects as of 5-Sep-2026
HD Live streaming from Space Station
objects crossing your sky now

SAUDISAT 3

Track SAUDISAT 3 now!
10-day predictions
SAUDISAT 3 is classified as:


NORAD ID: 31118
Int'l Code: 2007-012B
Launch date: April 17, 2007
Source: Saudi Arabia (SAUD)
Launch site: TYURATAM MISSILE AND SPACE COMPLEX (TTMTR)
Your satellite tracking list
Your tracking list is empty




NASA's NSSDC Master Catalog

Two Line Element Set (TLE):
1 31118U 07012B   26247.82007264  .00000132  00000-0  29577-4 0  9994
2 31118  98.1524 198.2993 0014151 339.5652  20.4987 14.71465591 39455
Source of the keplerian elements: AFSPC